Location: Newark
(55.7083°N, 13.1992°E)
Time: 04:34:23
(UTC+00:00)

LO-87 - Visible Passes

Search period start: 02 April 2020 00:00
Search period end: 12 April 2020 00:00
Orbit: 473 x 491 km, 97.4° (Epoch: 01 April)

Date Brightness Start Highest point End Pass type
(mag) Time Alt. Az. Time Alt. Az. Time Alt. Az.
02 Apr ? 21:08:21 26° NE 21:08:21 26° NE 21:10:37 10° N visible
02 Apr ? 22:42:39 19° NW 22:42:39 19° NW 22:44:04 10° NNW visible
03 Apr ? 20:42:55 19° NE 20:42:55 19° NE 20:45:08 10° NNE visible
03 Apr ? 22:17:13 29° NW 22:17:13 29° NW 22:19:10 10° NNW visible
04 Apr ? 20:17:29 12° ENE 20:17:43 12° NE 20:19:13 10° NNE visible
04 Apr ? 21:51:47 38° N 21:51:47 38° N 21:54:07 10° NNW visible
05 Apr ? 21:26:21 36° NNE 21:26:21 36° NNE 21:28:55 10° N visible
05 Apr ? 23:00:39 16° WNW 23:00:39 16° WNW 23:01:52 10° NW visible
06 Apr ? 21:00:54 26° NE 21:00:54 26° NE 21:03:33 10° N visible
06 Apr ? 22:35:13 25° NW 22:35:13 25° NW 22:37:10 10° NNW visible
07 Apr ? 20:35:28 17° ENE 20:35:37 17° ENE 20:37:59 10° NNE visible
07 Apr ? 22:09:46 39° NW 22:09:46 39° NW 22:12:12 10° NNW visible
08 Apr ? 20:10:01 10° ENE 20:10:48 11° NE 20:11:45 10° NE visible
08 Apr ? 21:44:19 48° N 21:44:19 48° N 21:47:06 10° N visible
08 Apr ? 23:18:37 12° WNW 23:18:37 12° WNW 23:19:24 10° NW visible
09 Apr ? 21:18:52 36° NE 21:18:52 36° NE 21:21:50 10° N visible
09 Apr ? 22:53:11 20° WNW 22:53:11 20° WNW 22:55:00 10° NW visible
10 Apr ? 20:53:25 23° ENE 20:53:32 23° ENE 20:56:26 10° N visible
10 Apr ? 22:27:44 34° WNW 22:27:44 34° WNW 22:30:12 10° NNW visible
11 Apr ? 20:27:58 14° ENE 20:28:39 15° ENE 20:30:45 10° NNE visible
11 Apr ? 22:02:17 55° NNW 22:02:17 55° NNW 22:05:12 10° NNW visible
